[[{"header":{"parameterUnit":"m.s-1","parameterCategory":1,"la1":30.2991,"la2":30.254,"lo1":-89.0895,"lo2":-89.0444,"dy":0.0017,"dx":0.0017,"nx":28,"ny":28,"refTime":"2024-07-15T03:00:00:Z","depth":0,"parameterNumber":2,"parameterNumberName":"U-component_of_WINDS"},"data":[0,0,0,0,0,0,0,0,0,0,0,0,0,0,0,0,0,0,0,0,0,0,0,0,0,0,0,0,0,0,0,0,0,0,0,0,0,0,0,0,0,0,0,0,0,0,0,0,0,0,0,0,0,0,0,0,0,0,0.3635,0.3637,0,0.376,0.3762,0.3763,0.3816,0.3816,0.3815,0.3815,0.3942,0.3945,0.3949,0,0,0,0,0,0,0,0,0,0,0,0,0,0.3439,0.3442,0.3635,0.3637,0.3638,0.376,0.3762,0.3764,0.3816,0.3816,0.3815,0.3815,0.394,0.3945,0.3949,0,0,0,0,0,0,0,0,0,0,0,0,0,0.354,0.3443,0.3635,0.3679,0.3684,0.376,0.3762,0.3764,0.3816,0.3816,0.3815,0.3815,0.3939,0.3944,0.395,0.399,0,0,0.3966,0.3968,0,0,0,0,0,0,0,0,0.3534,0.3547,0.3671,0.3676,0.3682,0.3772,0.3739,0.384,0.3816,0.3766,0.3815,0.3815,0.3885,0.3895,0.3919,0.3996,0.4001,0.3966,0.397,0.3972,0.3974,0,0,0,0,0,0,0,0.3527,0.3542,0.3685,0.3673,0.368,0.3692,0.3706,0.3758,0.3826,0.377,0.3774,0.3789,0.3888,0.3914,0.3923,0.4003,0.3966,0.3971,0.3974,0.3977,0.4117,0.4118,0,0,0,0,0,0,0.3513,0.3536,0.3681,0.3688,0.3606,0.3696,0.3711,0.3744,0.3826,0.3838,0.3789,0.379,0.3905,0.3916,0.3927,0.3979,0.3972,0.3977,0.398,0.4117,0.4117,0.4118,0,0,0,0,0,0,0.3509,0.3525,0.3676,0.3613,0.3633,0.3699,0.3735,0.3746,0.3772,0.384,0.3852,0.3803,0.3905,0.392,0.3974,0.3985,0.3979,0.3984,0.4116,0.4117,0.4118,0.4084,0,0,0,0,0,0,0.3503,0.3524,0.354,0.3613,0.3636,0.3721,0.3736,0.3749,0.3781,0.3785,0.3856,0.3867,0.3906,0.3965,0.3979,0.3992,0.3989,0.4116,0.4117,0.4117,0.4084,0.4083,0.4083,0,0,0,0,0,0.3496,0.3526,0.3541,0.3558,0.3659,0.3721,0.3734,0.3779,0.3782,0.3799,0.3842,0.3865,0.3981,0.397,0.3986,0.4001,0.4115,0.4116,0.4117,0.4085,0.4084,0.4083,0,0,0,0,0,0,0.3452,0.3536,0.3554,0.3609,0.3657,0.373,0.3753,0.3776,0.3825,0.3826,0.3878,0.3894,0.3943,0.3977,0.3964,0.4043,0.405,0.4054,0.4019,0.4019,0.4018,0.4009,0.3993,0,0,0,0,0,0.3449,0.3493,0.3564,0.3605,0.3629,0.3686,0.3715,0.3745,0.3797,0.3818,0.3865,0.3915,0.3962,0.3992,0.404,0.4089,0.4105,0.4107,0.4106,0.4105,0.4108,0.4136,0.4137,0.4122,0.4122,0.4122,0,0,0.3443,0.3494,0.3519,0.3598,0.3639,0.3683,0.3703,0.3749,0.3782,0.3825,0.3879,0.3915,0.3973,0.4025,0.405,0.4055,0.4116,0.4106,0.4105,0.4109,0.4137,0.4138,0.414,0.4123,0.4122,0.4122,0,0,0.3454,0.3498,0.3537,0.3577,0.364,0.3677,0.3686,0.3755,0.3781,0.3836,0.3869,0.3908,0.3989,0.4029,0.406,0.4084,0.4107,0.4098,0.4094,0.412,0.4121,0.4122,0.4131,0.4133,0.4101,0.4101,0.4101,0,0.3439,0.3507,0.3554,0.3598,0.3631,0.3672,0.3711,0.3748,0.3822,0.3843,0.3848,0.3949,0.3992,0.4053,0.4058,0.4082,0.4094,0.409,0.4117,0.4119,0.4121,0.4129,0.4133,0.4099,0.4099,0.4099,0.41,0,0.3484,0.3531,0.3555,0.3626,0.3662,0.3703,0.3755,0.3785,0.3811,0.3848,0.3902,0.3954,0.4012,0.4029,0.4055,0.4093,0.4094,0.4107,0.4115,0.412,0.4129,0.4133,0.4097,0.4098,0.4098,0.4098,0,0,0.3473,0.3568,0.3576,0.3609,0.3679,0.3716,0.3758,0.3815,0.384,0.3889,0.3926,0.3992,0.4004,0.4039,0.407,0.4093,0.4108,0.4103,0.4105,0.4102,0.4153,0.4143,0.4146,0.4123,0.4124,0.4124,0.4148,0,0.3494,0.3573,0.3615,0.3676,0.3719,0.3757,0.3794,0.384,0.3875,0.3916,0.3955,0.4001,0.4014,0.4035,0.4059,0.4101,0.4119,0.41,0.4157,0.4158,0.4142,0.4151,0.4141,0.416,0.4151,0.4152,0.4153,0,0.3529,0.3578,0.3643,0.3708,0.3728,0.376,0.3815,0.3854,0.3907,0.3931,0.3969,0.3999,0.4044,0.4047,0.4109,0.4095,0.412,0.4144,0.4146,0.4153,0.4156,0.4158,0.4168,0.417,0.4159,0.4158,0.4158,0,0.3514,0.3596,0.3646,0.3672,0.3749,0.3771,0.3803,0.3856,0.3887,0.3935,0.3956,0.4008,0.4036,0.4075,0.4118,0.4117,0.4176,0.4183,0.4196,0.4195,0.4208,0.4206,0.4221,0.4223,0.4223,0.4223,0.4223,0,0.3534,0.3572,0.364,0.367,0.3713,0.3761,0.3802,0.3838,0.3884,0.3921,0.3957,0.3991,0.4045,0.4085,0.4118,0.4164,0.4177,0.4197,0.4205,0.4194,0.4191,0.4212,0.4212,0.4224,0.4224,0.4223,0.4223,0,0.3525,0.3572,0.3628,0.3696,0.3714,0.3743,0.38,0.3831,0.3867,0.3913,0.3927,0.3983,0.4032,0.4079,0.4144,0.4166,0.4212,0.4223,0.4195,0.4199,0.421,0.4208,0.4239,0.4245,0.4242,0.4242,0.4242,0,0.3534,0.3564,0.3635,0.3663,0.3695,0.3739,0.3771,0.3819,0.385,0.3912,0.3935,0.3986,0.403,0.4106,0.4153,0.4203,0.4215,0.4222,0.4223,0.421,0.4215,0.4213,0.4216,0.4221,0.4221,0.4221,0.4221,0,0.3545,0.3567,0.3612,0.3665,0.3703,0.3747,0.3792,0.3812,0.3867,0.3901,0.3952,0.3985,0.4052,0.4102,0.4157,0.419,0.4215,0.422,0.4226,0.4215,0.4197,0.4207,0.4192,0.422,0.422,0.422,0.422,0.422,0.3546,0.3575,0.3629,0.3678,0.3716,0.3757,0.3789,0.3829,0.3872,0.393,0.3955,0.4006,0.4057,0.4133,0.4166,0.4206,0.4211,0.422,0.4222,0.4223,0.4221,0.419,0.4216,0.4216,0.4216,0.4216,0.4216,0,0.3559,0.3596,0.364,0.3702,0.374,0.376,0.381,0.3841,0.3885,0.3931,0.3973,0.4031,0.408,0.4129,0.4181,0.4203,0.4215,0.4215,0.4214,0.4221,0.4213,0.4203,0.4204,0.4204,0.4204,0.4204,0.4204,0.4204,0.3571,0.362,0.3647,0.3715,0.3751,0.3802,0.3829,0.3867,0.3903,0.3966,0.4007,0.4039,0.4086,0.4141,0.4186,0.4199,0.4217,0.4213,0.4229,0.4221,0.4222,0.4222,0.4213,0.4216,0.4216,0.4234,0.4234,0.4234]},{"header":{"parameterUnit":"m.s-1","parameterCategory":1,"la1":30.2991,"la2":30.254,"lo1":-89.0895,"lo2":-89.0444,"dy":0.0017,"dx":0.0017,"nx":28,"ny":28,"refTime":"2024-07-15T03:00:00:Z","depth":0,"parameterNumber":3,"parameterNumberName":"V-component_of_WINDS"},"data":[0,0,0,0,0,0,0,0,0,0,0,0,0,0,0,0,0,0,0,0,0,0,0,0,0,0,0,0,0,0,0,0,0,0,0,0,0,0,0,0,0,0,0,0,0,0,0,0,0,0,0,0,0,0,0,0,0,0,5.9074,5.9074,0,5.907,5.907,5.907,5.8991,5.8989,5.8987,5.8985,5.898,5.8982,5.8984,0,0,0,0,0,0,0,0,0,0,0,0,0,5.9014,5.9015,5.9074,5.9074,5.9074,5.907,5.907,5.907,5.8991,5.8989,5.8986,5.8984,5.898,5.8982,5.8984,0,0,0,0,0,0,0,0,0,0,0,0,0,5.9028,5.9016,5.9074,5.9034,5.9031,5.907,5.907,5.907,5.8991,5.8988,5.8985,5.8983,5.8979,5.8982,5.8984,5.9062,0,0,5.8992,5.8994,0,0,0,0,0,0,0,0,5.9027,5.903,5.904,5.9037,5.9033,5.9028,5.9047,5.9067,5.8992,5.9006,5.8985,5.8981,5.8999,5.8999,5.9005,5.9061,5.9061,5.8993,5.8994,5.8995,5.8996,0,0,0,0,0,0,0,5.9026,5.903,5.9073,5.904,5.9036,5.9016,5.9015,5.905,5.902,5.9005,5.8999,5.9,5.8996,5.9003,5.9005,5.9061,5.8993,5.8995,5.8997,5.8998,5.918,5.9183,0,0,0,0,0,0,5.9031,5.903,5.9073,5.9072,5.9023,5.902,5.9018,5.9033,5.9019,5.9014,5.9002,5.8996,5.9,5.9002,5.9004,5.9093,5.8995,5.8998,5.8999,5.9176,5.918,5.9184,0,0,0,0,0,0,5.903,5.9035,5.9073,5.9049,5.9053,5.9024,5.9041,5.9034,5.9041,5.9017,5.9011,5.9015,5.8998,5.9,5.9048,5.9092,5.8999,5.9001,5.9173,5.9178,5.9182,5.9272,0,0,0,0,0,0,5.9028,5.9035,5.9065,5.9051,5.9054,5.9117,5.9043,5.9036,5.9046,5.9037,5.9027,5.9023,5.8995,5.9044,5.905,5.9094,5.9004,5.9169,5.9175,5.9181,5.9265,5.928,5.9292,0,0,0,0,0,5.9026,5.909,5.9067,5.9072,5.909,5.912,5.9122,5.9089,5.905,5.9078,5.9063,5.9023,5.9086,5.905,5.9056,5.9101,5.9166,5.9173,5.918,5.9259,5.9277,5.9292,0,0,0,0,0,0,5.911,5.9088,5.9061,5.9123,5.9124,5.9106,5.9142,5.9108,5.9121,5.9112,5.9071,5.9069,5.9123,5.9117,5.9076,5.9175,5.9119,5.9128,5.9177,5.9193,5.9206,5.9207,5.9006,0,0,0,0,0,5.9136,5.9162,5.9141,5.9197,5.9199,5.9171,5.9182,5.9157,5.9156,5.9156,5.9144,5.9145,5.9165,5.9179,5.9196,5.9264,5.9261,5.9298,5.9312,5.9323,5.9331,5.9366,5.9382,5.9208,5.9208,5.9208,0,0,5.9189,5.918,5.9199,5.9214,5.9211,5.9239,5.9171,5.9203,5.9223,5.9161,5.9204,5.9196,5.9194,5.9252,5.9277,5.9249,5.9378,5.9332,5.9341,5.9343,5.9375,5.9391,5.9406,5.9213,5.9212,5.9211,0,0,5.93,5.9296,5.9342,5.9341,5.9339,5.9319,5.9331,5.9318,5.931,5.9353,5.9307,5.933,5.9366,5.9366,5.9371,5.9482,5.9445,5.9489,5.9558,5.9593,5.9607,5.9619,5.9658,5.9672,5.9497,5.9497,5.9497,0,5.9367,5.9406,5.937,5.9405,5.9412,5.9357,5.9403,5.9404,5.9408,5.9414,5.9382,5.9425,5.942,5.9477,5.9504,5.951,5.9521,5.9489,5.9608,5.9619,5.963,5.9667,5.9682,5.9502,5.9502,5.9501,5.9501,0,5.9488,5.9516,5.9553,5.9558,5.9569,5.961,5.958,5.9596,5.957,5.9554,5.9598,5.9591,5.9605,5.9617,5.9591,5.967,5.9652,5.9615,5.9558,5.9652,5.9686,5.97,5.951,5.9508,5.9506,5.9505,0,0,5.9651,5.9635,5.9649,5.965,5.9643,5.9664,5.9702,5.9716,5.973,5.9735,5.9765,5.9796,5.9761,5.9767,5.9741,5.9772,5.986,5.973,5.973,5.9754,5.9946,5.9973,5.999,5.9836,5.9838,5.984,5.9945,0,5.9757,5.9821,5.9789,5.9857,5.9882,5.983,5.9863,5.9862,5.9848,5.9868,5.9852,5.9875,5.9827,5.983,5.9858,5.9843,5.9898,5.9835,5.9863,5.9865,5.9865,6.0008,6.0038,6.0137,5.9959,5.9961,5.9962,0,5.989,5.99,5.997,5.9957,5.9967,5.9997,6.0007,6.0026,6.0024,6.0012,6.0019,5.9986,6.0022,5.9966,6.0015,5.9973,5.9983,5.9977,5.998,5.9981,5.9919,6.0012,6.0168,6.0183,5.9983,5.9981,5.998,0,6.0002,6.0032,6.0077,6.008,6.0067,6.009,6.0085,6.008,6.0091,6.0099,6.0105,6.0119,6.0126,6.0137,6.0108,6.007,6.0161,6.0103,6.0151,6.0152,6.0172,6.0171,6.0331,6.018,6.018,6.018,6.0179,0,6.0123,6.0168,6.0127,6.0155,6.0203,6.0167,6.0216,6.0206,6.0202,6.0227,6.0183,6.0207,6.0168,6.0189,6.0167,6.0211,6.0214,6.0205,6.0199,6.0209,6.021,6.0214,6.0206,6.0183,6.0183,6.0182,6.0181,0,6.0256,6.023,6.0276,6.026,6.0257,6.0294,6.028,6.0305,6.0288,6.032,6.0326,6.03,6.0321,6.0294,6.0314,6.0299,6.0358,6.0342,6.0359,6.0354,6.0404,6.0399,6.0572,6.0592,6.0429,6.043,6.0432,0,6.0335,6.0368,6.0355,6.0369,6.0367,6.039,6.04,6.0365,6.0377,6.0377,6.0402,6.0421,6.0433,6.0471,6.0453,6.0468,6.0451,6.0511,6.0453,6.0462,6.0451,6.045,6.0452,6.0522,6.0524,6.0526,6.0527,0,6.0478,6.0463,6.0479,6.0491,6.0504,6.0512,6.0517,6.053,6.0494,6.051,6.0531,6.0541,6.0561,6.058,6.059,6.0585,6.055,6.0545,6.0557,6.0568,6.0576,6.0572,6.039,6.0542,6.054,6.0539,6.0538,6.0538,6.0585,6.0612,6.0607,6.0627,6.0626,6.0631,6.0654,6.064,6.0657,6.067,6.0649,6.0676,6.0673,6.0683,6.0682,6.0703,6.0677,6.0695,6.0699,6.0704,6.0711,6.0573,6.0705,6.0704,6.0704,6.0704,6.0703,0,6.0725,6.072,6.0738,6.0745,6.076,6.0726,6.0729,6.0744,6.0768,6.0768,6.0782,6.0807,6.0824,6.0809,6.0823,6.0843,6.0827,6.0848,6.0846,6.0845,6.0734,6.0721,6.086,6.086,6.086,6.086,6.086,6.086,6.08,6.0843,6.0828,6.0871,6.0864,6.089,6.0895,6.0899,6.0899,6.0929,6.0943,6.0933,6.0926,6.094,6.0955,6.0949,6.0957,6.0983,6.0972,6.0868,6.0853,6.0838,6.0826,6.0985,6.0985,6.1081,6.1082,6.1083]}]]